Chattanooga Airport (CHA)

 

Airport Diagram
Current Weather/Forecast (VFR Conditions)
METAR KCHA 251353Z 28005KT 10SM SCT032 OVC040 04/M01 A3011 RMK AO2 SLP197 T00441011
TAF KCHA 251135Z 2512/2612 27005KT P6SM OVC035 FM251800 28005KT P6SM BKN045 FM260600 00000KT P6SM BKN050 FM261000 00000KT P6SM SCT030

All Charts
General
Chart Name Download
AIRPORT DIAGRAM
TAKEOFF MINIMUMS
ALTERNATE MINIMUMS

Departures
Chart Name Download
CHATTANOOGA SIX

Approaches
Chart Name Download
ILS OR LOC RWY 02
ILS OR LOC RWY 20
ILS RWY 20 (CAT II)
RNAV (GPS) RWY 02
RNAV (GPS) RWY 15
RNAV (GPS) RWY 20
RNAV (GPS) RWY 33
VOR RWY 33


Inbound Traffic (Arrivals)

No inbound traffic.


Outbound Traffic (Departures)

No outbound traffic.